Location: Brno
(49.2000°N, 16.6330°E)
Time: 01:50:19
(UTC+01:00)

ISS - Visible Passes

Search period start: 31 January 2023 00:00
Search period end: 10 February 2023 00:00
Orbit: 413 x 419 km, 51.6° (Epoch: 30 January)

Date Brightness Start Highest point End Pass type
(mag) Time Alt. Az. Time Alt. Az. Time Alt. Az.
31 Jan -3.8 17:44:07 10° WNW 17:47:30 89° SSW 17:50:43 11° ESE visible
31 Jan -1.5 19:21:14 10° W 19:23:38 22° SW 19:23:38 22° SW visible
01 Feb -2.2 18:32:17 10° W 18:35:21 33° SW 18:37:26 17° SSE visible
02 Feb -2.8 17:43:27 10° WNW 17:46:44 48° SSW 17:49:59 10° SE visible
03 Feb -0.9 18:32:09 10° W 18:34:17 16° SW 18:36:24 10° S visible
04 Feb -1.3 17:42:54 10° W 17:45:40 24° SW 17:48:26 10° SSE visible
06 Feb -0.3 17:43:22 10° WSW 17:44:20 11° SW 17:45:19 10° SSW visible
